GW3011 Weather Reports


time (UTC)temp
F
wind
direction
speed
knots
gust
knots
rain 1hr
in
rain 24hr
in
rain mn
in
humidity
%
barometer
mb
20260509014332 58 306 0.9 0.9 0.00 0.00 0.00 62 1012.2
20260509013828 57 310 0.0 0.9 0.00 0.00 0.00 62 1011.9
20260509013324 57 349 1.7 2.6 0.00 0.00 0.00 62 1011.9
20260509012815 58 341 2.6 5.2 0.00 0.00 0.00 60 1011.9
20260509012312 58 6 0.9 1.7 0.00 0.00 0.00 60 1011.9
20260509011809 58 356 1.7 2.6 0.00 0.00 0.00 60 1011.6
20260509011307 58 350 2.6 3.5 0.00 0.00 0.00 60 1011.8
20260509010804 58 326 1.7 2.6 0.00 0.00 0.00 61 1011.6
20260509010300 58 336 0.9 1.7 0.00 0.00 0.00 61 1011.4
20260509005758 59 307 1.7 2.6 0.00 0.00 0.00 60 1011.4
20260509005256 60 310 0.9 0.9 0.00 0.00 0.00 56 1011.3
20260509004756 60 316 0.0 0.0 0.00 0.00 0.00 54 1011.2
20260509004253 60 313 0.0 0.0 0.00 0.00 0.00 54 1011.1
20260509003751 60 319 0.9 0.9 0.00 0.00 0.00 54 1011.0
20260509003248 60 320 0.0 0.9 0.00 0.00 0.00 53 1011.0
20260509002745 60 311 0.0 0.0 0.00 0.00 0.00 54 1010.7
20260509002243 60 314 0.9 0.9 0.00 0.00 0.00 53 1010.9
20260509001740 60 311 0.0 0.0 0.00 0.00 0.00 53 1010.7
20260509001236 60 311 0.0 0.0 0.00 0.00 0.00 53 1010.9
20260509000734 60 323 0.0 0.0 0.00 0.00 0.00 53 1010.8
20260509000233 60 310 0.0 0.0 0.00 0.00 0.00 53 1011.0
20260508235728 60 309 1.7 1.7 0.00 0.00 0.00 52 1011.0
20260508235225 60 300 0.0 0.9 0.00 0.00 0.00 52 1010.8
20260508234722 60 301 0.9 0.9 0.00 0.00 0.00 51 1010.9
20260508234218 60 303 0.0 0.9 0.00 0.00 0.00 51 1010.7
20260508233717 60 306 0.0 0.0 0.00 0.00 0.00 53 1010.8
20260508233215 60 303 0.0 0.9 0.00 0.00 0.00 51 1010.7
20260508232712 60 335 0.0 0.9 0.00 0.00 0.00 51 1010.7
20260508232208 60 298 0.9 0.9 0.00 0.00 0.00 51 1010.8
20260508231707 61 301 1.7 2.6 0.00 0.00 0.00 50 1010.7
20260508231203 61 219 1.7 2.6 0.00 0.00 0.00 49 1010.7
20260508230655 61 305 0.0 0.0 0.00 0.00 0.00 49 1010.6
20260508230150 60 306 0.0 0.9 0.00 0.00 0.00 50 1010.5
20260508225649 60 299 0.0 0.0 0.00 0.00 0.00 50 1010.4
20260508225144 61 292 1.7 2.6 0.00 0.00 0.00 49 1010.4
20260508224643 61 286 1.7 1.7 0.00 0.00 0.00 48 1010.5
20260508224140 61 303 0.9 0.9 0.00 0.00 0.00 48 1010.7
20260508223638 61 292 0.0 0.0 0.00 0.00 0.00 49 1010.5
20260508223135 61 304 1.7 1.7 0.00 0.00 0.00 49 1010.6
20260508222632 60 304 0.9 1.7 0.00 0.00 0.00 50 1010.6
20260508222129 61 301 1.7 1.7 0.00 0.00 0.00 49 1010.7
20260508221625 61 298 0.9 0.9 0.00 0.00 0.00 49 1010.4
20260508221121 61 294 1.7 2.6 0.00 0.00 0.00 48 1010.6
20260508220618 62 303 1.7 2.6 0.00 0.00 0.00 46 1010.4
20260508220114 63 260 1.7 2.6 0.00 0.00 0.00 46 1010.5
20260508215611 63 231 1.7 2.6 0.00 0.00 0.00 45 1010.2
20260508215108 63 278 1.7 1.7 0.00 0.00 0.00 44 1010.4
20260508214605 63 264 1.7 2.6 0.00 0.00 0.00 45 1010.5
20260508214101 63 272 2.6 2.6 0.00 0.00 0.00 43 1010.4
20260508213558 62 291 2.6 3.5 0.00 0.00 0.00 43 1010.3
20260508213054 63 291 4.3 6.1 0.00 0.00 0.00 44 1010.4
20260508212551 63 276 2.6 3.5 0.00 0.00 0.00 44 1010.4
20260508212048 62 227 3.5 5.2 0.00 0.00 0.00 44 1010.4
20260508211543 61 279 2.6 2.6 0.00 0.00 0.00 45 1010.5
20260508211040 61 300 0.9 1.7 0.00 0.00 0.00 48 1010.7
20260508210536 61 273 1.7 2.6 0.00 0.00 0.00 47 1010.5
20260508210034 61 293 1.7 1.7 0.00 0.00 0.00 47 1010.6
20260508205531 62 225 2.6 3.5 0.00 0.00 0.00 46 1010.5
20260508205027 62 306 2.6 2.6 0.00 0.00 0.00 45 1010.4
20260508204524 61 267 2.6 2.6 0.00 0.00 0.00 46 1010.6
20260508204020 61 255 1.7 2.6 0.00 0.00 0.00 46 1010.7
20260508203516 61 276 1.7 1.7 0.00 0.00 0.00 46 1010.7
20260508203012 61 274 1.7 1.7 0.00 0.00 0.00 47 1010.5
20260508202509 61 300 1.7 1.7 0.00 0.00 0.00 45 1010.7
20260508202006 62 316 4.3 6.1 0.00 0.00 0.00 44 1010.4
20260508201503 62 260 2.6 3.5 0.00 0.00 0.00 42 1010.4
20260508200959 62 290 1.7 2.6 0.00 0.00 0.00 42 1010.4
20260508200456 62 202 6.1 7.8 0.00 0.00 0.00 41 1010.5
20260508195950 62 302 0.9 0.9 0.00 0.00 0.00 43 1010.3
20260508195449 63 299 1.7 2.6 0.00 0.00 0.00 42 1010.2
20260508194944 62 189 2.6 5.2 0.00 0.00 0.00 42 1010.4
20260508194442 63 196 4.3 9.6 0.00 0.00 0.00 41 1010.4
20260508193939 63 327 3.5 3.5 0.00 0.00 0.00 42 1010.3
20260508193436 64 321 0.9 0.9 0.00 0.00 0.00 41 1010.5
20260508192932 64 292 1.7 2.6 0.00 0.00 0.00 41 1010.3
20260508192429 62 282 2.6 3.5 0.00 0.00 0.00 43 1010.5
20260508191926 63 251 1.7 2.6 0.00 0.00 0.00 43 1010.5
20260508191423 63 307 0.9 0.9 0.00 0.00 0.00 40 1010.5
20260508190920 63 324 3.5 6.1 0.00 0.00 0.00 40 1010.6
20260508190417 63 211 3.5 7.0 0.00 0.00 0.00 41 1010.6
20260508185913 62 326 3.5 5.2 0.00 0.00 0.00 41 1010.5
20260508185411 62 301 0.0 0.9 0.00 0.00 0.00 41 1010.7
20260508184908 62 289 1.7 2.6 0.00 0.00 0.00 40 1010.8
20260508184405 62 201 9.6 11.3 0.00 0.00 0.00 40 1010.8
20260508183901 62 39 2.6 3.5 0.00 0.00 0.00 40 1010.8
20260508183358 63 19 4.3 8.7 0.00 0.00 0.00 40 1010.8
20260508182848 63 248 3.5 6.1 0.00 0.00 0.00 39 1010.9
20260508182345 64 276 5.2 8.7 0.00 0.00 0.00 39 1010.8
20260508181840 64 289 2.6 3.5 0.00 0.00 0.00 38 1010.9
20260508181337 63 228 1.7 3.5 0.00 0.00 0.00 40 1010.9
20260508180835 64 217 1.7 1.7 0.00 0.00 0.00 41 1010.9
20260508180331 63 345 2.6 3.5 0.00 0.00 0.00 39 1010.8
20260508175827 63 173 5.2 7.8 0.00 0.00 0.00 39 1011.0
20260508175324 62 260 3.5 7.0 0.00 0.00 0.00 41 1011.1
20260508174823 62 119 3.5 5.2 0.00 0.00 0.00 41 1011.0
20260508174320 62 190 6.1 7.8 0.00 0.00 0.00 40 1011.1
20260508173816 62 167 4.3 6.1 0.00 0.00 0.00 42 1011.3
20260508173313 62 248 3.5 5.2 0.00 0.00 0.00 41 1011.2
20260508172809 63 182 4.3 13.0 0.00 0.00 0.00 39 1011.2
20260508172307 63 207 8.7 11.3 0.00 0.00 0.00 39 1011.1
20260508171803 63 274 5.2 7.0 0.00 0.00 0.00 41 1011.2
20260508171259 63 255 5.2 7.0 0.00 0.00 0.00 40 1011.2
20260508170755 62 247 4.3 7.0 0.00 0.00 0.00 39 1011.5
20260508170254 62 176 6.1 13.0 0.00 0.00 0.00 39 1011.3
20260508165750 61 199 5.2 6.1 0.00 0.00 0.00 40 1011.2
20260508165247 61 89 1.7 3.5 0.00 0.00 0.00 39 1011.4
20260508164737 60 71 4.3 5.2 0.00 0.00 0.00 40 1011.5
20260508164234 61 228 5.2 7.8 0.00 0.00 0.00 39 1011.4
20260508163732 61 189 3.5 6.1 0.00 0.00 0.00 39 1011.6
20260508163230 62 117 5.2 7.8 0.00 0.00 0.00 40 1011.6
20260508162725 62 221 6.1 9.6 0.00 0.00 0.00 39 1011.4
20260508162222 62 245 7.0 9.6 0.00 0.00 0.00 38 1011.4
20260508161719 63 160 6.1 11.3 0.00 0.00 0.00 37 1011.8
20260508161217 62 357 6.1 8.7 0.00 0.00 0.00 38 1011.8
20260508160714 61 255 4.3 6.1 0.00 0.00 0.00 40 1011.9
20260508160213 61 214 5.2 7.0 0.00 0.00 0.00 41 1011.7
20260508155709 62 194 5.2 9.6 0.00 0.00 0.00 41 1011.8
20260508155206 60 222 5.2 7.8 0.00 0.00 0.00 39 1011.9
20260508154703 61 215 3.5 6.1 0.00 0.00 0.00 40 1011.7
20260508154200 62 257 3.5 5.2 0.00 0.00 0.00 38 1011.8
20260508153656 62 179 4.3 5.2 0.00 0.00 0.00 39 1011.9
20260508153154 62 211 1.7 1.7 0.00 0.00 0.00 39 1011.7
20260508152650 62 288 2.6 3.5 0.00 0.00 0.00 39 1011.9
20260508152146 62 235 2.6 3.5 0.00 0.00 0.00 38 1011.8
20260508151642 62 248 1.7 2.6 0.00 0.00 0.00 38 1011.7
20260508151139 62 310 2.6 5.2 0.00 0.00 0.00 38 1011.8
20260508150636 60 265 3.5 3.5 0.00 0.00 0.00 40 1011.7
20260508150133 60 227 3.5 3.5 0.00 0.00 0.00 41 1011.8
20260508145629 60 275 2.6 3.5 0.00 0.00 0.00 42 1011.8
20260508145125 60 245 3.5 6.1 0.00 0.00 0.00 42 1012.0
20260508144623 62 212 4.3 5.2 0.00 0.00 0.00 42 1011.7
20260508144120 60 250 0.9 1.7 0.00 0.00 0.00 45 1011.9
20260508143618 60 218 1.7 2.6 0.00 0.00 0.00 43 1012.1
20260508143114 59 250 1.7 1.7 0.00 0.00 0.00 44 1012.0
20260508142611 59 276 2.6 2.6 0.00 0.00 0.00 49 1011.9
20260508142108 59 197 0.9 2.6 0.00 0.00 0.00 47 1011.9
20260508141604 58 289 0.9 1.7 0.00 0.00 0.00 49 1012.0
20260508141102 58 208 1.7 2.6 0.00 0.00 0.00 51 1012.1
20260508140559 57 237 3.5 3.5 0.00 0.00 0.00 52 1012.3
20260508140056 58 284 1.7 2.6 0.00 0.00 0.00 50 1012.1
20260508135551 57 196 3.5 5.2 0.00 0.00 0.00 53 1012.4
20260508135047 57 241 2.6 5.2 0.00 0.00 0.00 51 1012.1
20260508134544 57 244 1.7 3.5 0.00 0.00 0.00 52 1012.2
20260508134042 58 258 3.5 5.2 0.00 0.00 0.00 52 1012.0
20260508133538 57 294 0.9 0.9 0.00 0.00 0.00 52 1012.4
20260508133035 56 167 3.5 5.2 0.00 0.00 0.00 55 1012.1
20260508132533 57 303 2.6 3.5 0.00 0.00 0.00 53 1011.9
20260508132030 57 243 3.5 5.2 0.00 0.00 0.00 54 1012.1
20260508131525 57 280 3.5 3.5 0.00 0.00 0.00 54 1012.0
20260508131022 57 236 1.7 2.6 0.00 0.00 0.00 55 1012.1
20260508130519 56 207 3.5 3.5 0.00 0.00 0.00 55 1012.1
20260508130015 56 287 2.6 2.6 0.00 0.00 0.00 54 1012.2
20260508125510 56 199 2.6 2.6 0.00 0.00 0.00 56 1012.2
20260508125008 56 256 2.6 2.6 0.00 0.00 0.00 57 1012.1
20260508124506 57 281 2.6 2.6 0.00 0.00 0.00 56 1012.0
20260508124003 56 295 0.9 1.7 0.00 0.00 0.00 56 1011.9
20260508123502 54 301 1.7 1.7 0.00 0.00 0.00 60 1011.9
20260508122957 56 266 3.5 3.5 0.00 0.00 0.00 58 1012.2
20260508122455 54 267 1.7 1.7 0.00 0.00 0.00 60 1012.1
20260508121951 54 241 3.5 3.5 0.00 0.00 0.00 61 1012.3
20260508121450 53 295 3.5 3.5 0.00 0.00 0.00 64 1012.6
20260508120948 53 230 1.7 2.6 0.00 0.00 0.00 67 1012.5
20260508120445 54 262 2.6 2.6 0.00 0.00 0.00 65 1012.6
20260508115943 53 202 4.3 7.0 0.00 0.00 0.00 67 1012.6
20260508115440 53 237 2.6 2.6 0.00 0.00 0.00 67 1012.4
20260508114936 52 297 0.9 0.9 0.00 0.00 0.00 68 1012.2
20260508114434 53 281 0.9 1.7 0.00 0.00 0.00 68 1012.4
20260508113930 53 207 3.5 3.5 0.00 0.00 0.00 67 1012.1
20260508113428 53 280 1.7 2.6 0.00 0.00 0.00 68 1012.0
20260508112925 52 273 2.6 2.6 0.00 0.00 0.00 68 1012.2
20260508112422 52 238 1.7 2.6 0.00 0.00 0.00 68 1012.1
20260508111918 52 286 0.9 1.7 0.00 0.00 0.00 70 1012.0
20260508111415 51 295 1.7 1.7 0.00 0.00 0.00 72 1012.1
20260508110913 50 281 1.7 1.7 0.00 0.00 0.00 73 1011.9
20260508110410 50 303 0.9 0.9 0.00 0.00 0.00 73 1011.9
20260508105910 50 303 0.0 0.0 0.00 0.00 0.00 73 1011.7
20260508105406 50 291 0.0 0.9 0.00 0.00 0.00 74 1011.8
20260508104904 49 279 1.7 1.7 0.00 0.00 0.00 74 1011.7
20260508104401 49 287 0.9 0.9 0.00 0.00 0.00 74 1011.5
20260508103858 49 272 1.7 1.7 0.00 0.00 0.00 74 1011.5
20260508103354 50 283 1.7 1.7 0.00 0.00 0.00 73 1011.4
20260508102852 50 298 0.0 0.0 0.00 0.00 0.00 74 1011.4
20260508102350 50 281 0.9 0.9 0.00 0.00 0.00 74 1011.2
20260508101847 49 287 0.9 0.9 0.00 0.00 0.00 74 1011.4
20260508101344 49 271 0.9 0.9 0.00 0.00 0.00 74 1011.4
20260508100842 49 282 0.9 1.7 0.00 0.00 0.00 73 1011.4
20260508100341 50 254 1.7 1.7 0.00 0.00 0.00 73 1011.3
20260508095835 50 284 1.7 1.7 0.00 0.00 0.00 74 1011.3
20260508095333 49 217 1.7 1.7 0.00 0.00 0.00 74 1011.2
20260508094830 50 288 1.7 1.7 0.00 0.00 0.00 73 1011.0
20260508094327 50 294 1.7 1.7 0.00 0.00 0.00 73 1011.1
20260508093824 50 297 0.9 0.9 0.00 0.00 0.00 72 1011.0
20260508093322 50 297 1.7 2.6 0.00 0.00 0.00 72 1011.0
20260508092819 50 294 0.9 0.9 0.00 0.00 0.00 72 1011.0
20260508092317 50 272 1.7 2.6 0.00 0.00 0.00 71 1010.8
20260508091815 50 303 0.9 0.9 0.00 0.00 0.00 71 1010.8
20260508091311 49 305 0.9 0.9 0.00 0.00 0.00 72 1010.5
20260508090809 49 304 0.9 0.9 0.00 0.00 0.00 72 1010.6
20260508090307 49 303 0.0 0.0 0.00 0.00 0.00 73 1010.8
20260508085803 49 295 3.5 5.2 0.00 0.00 0.00 73 1010.8
20260508085300 49 291 3.5 6.1 0.00 0.00 0.00 71 1010.8
20260508084755 50 281 1.7 1.7 0.00 0.00 0.00 71 1010.7
20260508084253 50 284 1.7 2.6 0.00 0.00 0.00 71 1010.7
20260508083751 50 293 0.9 1.7 0.00 0.00 0.00 71 1010.8
20260508083248 50 288 1.7 2.6 0.00 0.00 0.00 71 1010.8
20260508082748 49 298 0.9 1.7 0.00 0.00 0.00 72 1010.8
20260508082246 49 299 1.7 2.6 0.00 0.00 0.00 71 1010.7
20260508081743 49 254 0.9 1.7 0.00 0.00 0.00 71 1010.9
20260508081239 49 295 1.7 2.6 0.00 0.00 0.00 69 1010.5
20260508080736 50 309 3.5 5.2 0.00 0.00 0.00 69 1010.5
20260508080235 50 285 3.5 5.2 0.00 0.00 0.00 68 1010.2
20260508075731 50 301 1.7 2.6 0.00 0.00 0.00 66 1010.0
20260508075228 50 303 3.5 3.5 0.00 0.00 0.00 65 1010.0
20260508074726 51 312 0.9 0.9 0.00 0.00 0.00 64 1009.9
20260508074223 51 307 1.7 1.7 0.00 0.00 0.00 63 1009.7
20260508073719 51 293 3.5 5.2 0.00 0.00 0.00 62 1009.8
20260508073218 51 11 2.6 3.5 0.00 0.00 0.00 61 1009.7
20260508072713 51 289 1.7 2.6 0.00 0.00 0.00 60 1009.8
20260508072210 51 296 0.9 1.7 0.00 0.00 0.00 59 1009.9
20260508071708 52 299 1.7 1.7 0.00 0.00 0.00 60 1009.9
20260508071206 52 298 1.7 2.6 0.00 0.00 0.00 59 1009.8
20260508070703 52 300 3.5 3.5 0.00 0.00 0.00 58 1009.8
20260508070202 52 296 1.7 1.7 0.00 0.00 0.00 59 1009.9
20260508065658 52 303 3.5 3.5 0.00 0.00 0.00 59 1009.9
20260508065156 52 305 4.3 7.0 0.00 0.00 0.00 60 1010.2
20260508064653 52 307 1.7 1.7 0.00 0.00 0.00 61 1010.0
20260508064152 52 286 5.2 7.0 0.00 0.00 0.00 61 1010.0
20260508063649 53 303 1.7 1.7 0.00 0.00 0.00 60 1009.8
20260508063147 54 261 2.6 2.6 0.00 0.00 0.00 58 1010.3
20260508062644 54 304 0.9 0.9 0.00 0.00 0.00 63 1009.8
20260508062140 54 301 1.7 1.7 0.00 0.00 0.00 74 1009.9
20260508061638 54 303 0.9 0.9 0.00 0.00 0.00 74 1009.8
20260508061135 54 308 1.7 1.7 0.00 0.00 0.00 78 1009.6
20260508060632 54 292 0.9 1.7 0.00 0.00 0.00 79 1009.7
20260508060129 54 289 1.7 1.7 0.00 0.00 0.00 79 1009.6
20260508055625 54 269 0.9 1.7 0.00 0.00 0.00 77 1009.2
20260508055122 54 306 0.9 0.9 0.00 0.00 0.00 76 1008.8
20260508054618 54 302 0.0 0.0 0.00 0.00 0.00 75 1008.4
20260508054116 54 302 0.0 0.0 0.00 0.00 0.00 74 1008.6
20260508053612 55 302 0.0 0.0 0.00 0.00 0.00 73 1008.4
20260508053111 55 302 0.0 0.0 0.00 0.00 0.00 73 1008.6
20260508052607 55 274 0.9 1.7 0.00 0.00 0.00 73 1008.6
20260508052104 55 297 0.0 0.0 0.00 0.00 0.00 73 1008.6
20260508051600 54 273 0.9 0.9 0.00 0.00 0.00 76 1008.6
20260508051056 54 289 0.9 0.9 0.00 0.00 0.00 75 1008.4
20260508050552 55 305 0.0 0.0 0.00 0.00 0.00 74 1008.8
20260508050050 54 264 0.0 0.0 0.00 0.00 0.00 75 1008.8
20260508045546 53 271 0.0 0.0 0.00 0.00 0.00 77 1008.5
20260508045044 54 300 0.0 0.0 0.00 0.00 0.00 76 1008.4
20260508044541 52 306 0.0 0.0 0.00 0.00 0.00 78 1008.4
20260508044037 53 307 0.0 0.0 0.00 0.00 0.00 78 1008.4
20260508043534 53 307 0.0 0.0 0.00 0.00 0.00 78 1008.2
20260508043031 53 300 0.0 0.0 0.00 0.00 0.00 77 1008.4
20260508042527 53 313 0.0 0.0 0.00 0.00 0.00 78 1008.3
20260508042025 53 307 0.0 0.0 0.00 0.00 0.00 77 1008.4
20260508041521 53 307 0.0 0.0 0.00 0.00 0.00 77 1008.3
20260508041018 53 334 0.0 0.0 0.00 0.00 0.00 76 1008.2
20260508040515 53 337 0.0 0.0 0.00 0.00 0.00 76 1008.3
20260508040012 53 324 0.0 0.0 0.00 0.00 0.00 77 1008.2
20260508035509 54 305 0.0 0.0 0.00 0.00 0.00 76 1008.6
20260508035006 54 308 0.0 0.0 0.00 0.00 0.00 76 1008.6
20260508034503 53 305 0.0 0.0 0.00 0.00 0.00 77 1008.6
20260508034000 53 308 0.0 0.0 0.00 0.00 0.00 76 1008.4
20260508033458 54 308 0.0 0.0 0.00 0.00 0.00 76 1008.4
20260508032955 54 303 0.0 0.0 0.00 0.00 0.00 74 1008.6
20260508032452 55 308 0.0 0.0 0.00 0.00 0.00 73 1008.9
20260508031949 54 303 0.0 0.0 0.00 0.00 0.00 74 1008.8
20260508031446 55 302 0.0 0.0 0.00 0.00 0.00 73 1008.7
20260508030942 54 311 0.0 0.0 0.00 0.00 0.00 74 1008.5
20260508030440 55 305 0.0 0.0 0.00 0.00 0.00 73 1008.5
20260508025937 55 308 0.9 1.7 0.00 0.00 0.00 73 1008.5
20260508025433 55 312 0.9 0.9 0.00 0.00 0.00 73 1008.5
20260508024930 55 308 0.0 0.0 0.00 0.00 0.00 72 1008.5
20260508024426 55 302 0.0 0.0 0.00 0.00 0.00 72 1008.6
20260508023923 56 305 0.9 0.9 0.00 0.00 0.00 70 1008.6
20260508023420 56 330 0.0 0.9 0.00 0.00 0.00 68 1008.5
20260508022917 56 297 0.0 0.0 0.00 0.00 0.00 66 1008.4
20260508022412 57 340 1.7 1.7 0.00 0.00 0.00 63 1008.6
20260508021909 57 333 0.9 0.9 0.00 0.00 0.00 60 1008.4
20260508021406 57 347 0.9 0.9 0.00 0.00 0.00 58 1008.4
20260508020902 58 305 0.0 0.0 0.00 0.00 0.00 56 1008.7
20260508020400 58 290 0.9 0.9 0.00 0.00 0.00 53 1008.5
20260508015857 59 323 0.9 1.7 0.00 0.00 0.00 51 1008.4
20260508015355 59 307 0.0 0.0 0.00 0.00 0.00 40 1008.3
20260508014851 59 314 0.0 0.9 0.00 0.00 0.00 39 1008.2